フルス彗星

C/2023 U1 ( Fuls )

English version
Home page
Updated on March 23, 2025

---------------------------------------------------------------------

・ プロフィール

発見日 2023年10月16日
発見光度 19.3等
発見者 David Carson Fuls (Mt. Lemmon Survey)

・ 写真集

・ 軌道要素

Epoch 2025 May 5.0 TT = JDT 2460800.5
T 2024 Oct. 12.89547 TT                                 Pike
q   4.9730261            (2000.0)            P               Q
z  +0.0003952      Peri.  255.64157     +0.09961004     +0.62938747
 +/-0.0000017      Node   305.80479     +0.71265375     -0.58565668
e   0.9980347      Incl.  108.14574     -0.69440800     -0.51076185
From 350 observations 2023 Jan. 14-2025 Feb. 22, mean residual 0".5.

・ 光度変化

        m1 = 0.0 + 5 logΔ + 20.0 log r(t - 100)

---------------------------------------------------------------------

軌道要素はM.P.E.C. 2025-D254に掲載されたものです。
光度グラフはComet for Windowsで作成したものです。

---------------------------------------------------------------------

Copyright(C) Seiichi Yoshida (comet@aerith.net). All rights reserved.